HULIANWANG DIGUI-99

导读 | 豆包AI

HULIANWANG DIGUI-99是中国于**2025年11月10日**成功发射的低轨卫星,作为中国低轨卫星互联网星座建设的组成部分,将依托星座系统,为全球提供高速稳定的宽带互联网接入服务,弥补地面网络在偏远地区、海洋空域等覆盖盲区,进一步推动我国天地一体化信息网络建设。

Basic Information
目录编号:
66415
目录名称:
HULIANWANG DIGUI-99
国际标识:
2025-258D
轨道中心:
EARTH
卫星名称:
HULIANWANG DIGUI-99
卫星全名:
HULIANWANG DIGUI-99
卫星状态:
在轨 (已飞行196 天)
发射日期:
2025-11-10 UTC
国别 :
中国 (CN)
星等 :
--
Orbit Information
数据来源 国际轨道数据 AOE轨道数据
星历时间 2026-05-24T05:56:25+0800
1天前
查看轨道信息
2026-05-22T16:00:00+0800
2天前
查看轨道信息
半长轴 7527.457km 7527.457km
偏心率 0.0000973 0.000075
轨道倾角 50.006° 50.006°
近地点辐角 55.601° 48.483°
升交点赤经 22.620° 28.290°
平近点角 304.495° 301.692°
近地点 1148.587km 1148.755km
远地点 1150.053km 1149.885km
周期 108.326分钟 108.326分钟
每日圈数 13.293227 13.293225
Detailed Information
使用方式:
暂无
2D Orbit Map
3D Orbit Map
Orbit Altitude Analysis Chart
Orbit Inclination Analysis Chart
Orbit Comprehensive Analysis Chart
View Comprehensive Chart